Terminal Aerodrome Forecast
Issued by NWS

Home | Current Version | Previous Version | Text Only | Print | Product List | Glossary On
Versions: 1 2 3 4 5 6 7 8 9 10 11 12 13 14 15 16 17 18 19 20 21 22 23 24 25 26 27 28 29 30 31 32 33 34 35 36 37 38 39 40
000
FTUS41 KBOX 030538
TAFFMH
TAF
KFMH 030538Z 0306/0406 22012KT P6SM SCT250 WS020/25035KT
     FM030700 23009KT P6SM BKN250
     FM031100 28012KT P6SM SCT250
     FM031500 32009KT P6SM FEW250
     FM031800 28007KT P6SM FEW250
     FM040100 VRB03KT P6SM SKC=

USA.gov is the U.S. government's official web portal to all federal, state and local government web resources and services.